Location: Boiro
(42.6475°N, 8.8834°W)
Time: 00:13:17
(UTC+01:00)

Vanguard 2 Rocket - Pass Details

Date: 15 December 2021
Orbit: 553 x 3325 km, 32.9° (Epoch: 26 January)

Event Time Altitude Azimuth Distance (km) Brightness Sun altitude
Rises 18:47:20 0° 253° (WSW) 2,755 11.7 -8.1°
Reaches altitude 10° 18:49:38 10° 238° (WSW) 1,953 10.3 -8.5°
Maximum altitude 18:53:13 25° 182° (S) 1,417 8.2 -9.1°
Drops below altitude 10° 18:58:00 10° 127° (SE) 2,662 9.0 -9.9°
Sets 19:01:44 0° 116° (ESE) 4,039 9.8 -10.5°
